www.pogodaiklimat.ru

АРХИВ ПОГОДЫ в Мидленде

Время (UTC), дата Ветер
(напр.,м/с)
 
Видим.   Явления Облачность Т
(С)
Тd
(С)
f
(%)
Тe
(С)
Тes
(С)
Комфортность

P
(гПа)

Po
(гПа)
Тmin
(С)
Tmax
(С)
R
(мм)
SD
(см)
12:53 19.05 Ю  14 км    ясно  +23.9  +13.9  54  +26  +26  жарко  1005.1  909.5         
13:53 19.05 Ю  14 км    ясно  +25.6  +14.4  50  +28  +29  жарко  1005.2  909.5         
14:53 19.05 Ю  6
{10} 
14 км    ясно  +27.2  +15.0  47  +30  +32  душно  1005.5  909.8         
15:53 19.05 Ю  4
{8} 
14 км    ясно  +28.3  +14.4  43  +31  +37  душно  1005.5  910.1         
16:53 19.05 ЮВ  14 км    ясно  +30.0  +13.3  36  +31  +43  жарко  1005.5  910.1         
17:53 19.05 ЮВ  14 км    ясно  +31.7  +13.3  33  +33  +43  жарко  1004.9  909.5         
18:53 19.05 ЮВ  4
{8} 
14 км    ясно  +32.2  +12.2  30  +33  +47  жарко  1004.4  909.2         
19:53 19.05 Ю  14 км    ясно  +33.3  +11.7  27  +33  +45  жарко  1003.7  908.6         
20:53 19.05 ЮВ  4
{8} 
14 км    ясно  +32.8  +14.4  33  +34  +44  очень
жарко 
1003.4  908.3         
21:53 19.05 Ю  5
{9} 
13 км    ясно  +32.8  +15.0  34  +35  +39  душно  1003.4  908.0         
22:53 19.05 ЮВ  9
{11} 
11 км    ясно  +31.7  +16.1  39  +35  +35  очень
душно 
1003.3  907.7    +33.3     
23:53 19.05 ЮВ  10  13 км    ясно  +30.0  +16.1  43  +33  +33  душно  1003.5  908.0         
00:53 20.05 Ю  11
{14} 
13 км    ясно  +28.0  +17.0  51  +32  +32  душно  1004.3  908.6         
01:53 20.05 ЮВ  10
{12} 
14 км    ясно  +27.2  +16.7  53  +31  +31  душно  1004.9  909.2         
02:53 20.05 Ю  11  14 км    ясно  +27.0  +17.0  54  +31  +31  душно  1005.6  910.1         
03:53 20.05 Ю  14 км    ясно  +26.0  +17.0  58  +30  +30  душно  1006.4  910.7         
05:53 20.05 Ю  16 км    ясно  +23.9  +17.2  66  +28  +28  душно  1007.2  911.3         
06:53 20.05 Ю  10  16 км    2/2 690 м  +22.8  +17.8  73  +28  +28  душно    911.6         
07:41 20.05 Ю  16 км    8/8 570 м  +22.8  +17.8  73  +28  +28  душно    912.0         
07:53 20.05 Ю  16 км    10/10 540 м  +22.8  +18.3  76  +28  +28  душно  1008.1  912.3         
08:30 20.05 В  11
{14} 
14 км    10/10 510 м  +21.7  +17.2  76  +26  +26  душно    914.1         
08:53 20.05 СВ  10
{12} 
8 км  слабый дождь, дымка  10/10 510 м  +17.2  +15.0  87  +16  +16    1011.8  915.0         
09:02 20.05 С  12
{15} 
4 км  сильный дождь, дымка  10/10 210 м  +16.7  +15.6  93  +15  +15      915.6         
09:06 20.05 С  16  3 км  сильный дождь, дымка  10/10 210 м  +16.1  +15.0  93  +13  +13      915.9         
09:15 20.05 СВ  17
{21} 
2 км  гроза, сильный дождь, дымка  10/10 210 м  +15.0  +13.9  93  +11  +11               
09:20 20.05 СВ  16
{21} 
2 км  гроза, сильный дождь, дымка  10/10 240 м  +15.0  +13.9  93  +11  +11               
09:29 20.05 СВ  14
{20} 
5 км  гроза, дождь, дымка  10/10 240 м  +15.6  +14.4  93  +13  +13               
09:42 20.05 СВ  12
{18} 
8 км  гроза со слабым дождем, дымка  10/10 1440 м  +15.0  +13.3  90  +12  +12               
09:53 20.05 В  10
{15} 
14 км  гроза со слабым дождем  10/10 1800 м  +15.6  +13.9  90  +13  +13    1012.7           
10:53 20.05 В  9
{11} 
16 км  гроза со слабым дождем  8/8 810 м  +15.6  +14.4  93  +13  +13    1012.9  915.9  +15.0  +24.4  13.2   
11:03 20.05 В  9
{13} 
16 км  гроза  5/5 750 м  +16.1  +14.4  90  +14  +14      915.9         
11:18 20.05 В  16 км  гроза  ясно  +16.1  +14.4  90  +14  +14      916.5         
11:33 20.05 В  16 км    ясно  +16.1  +14.4  90  +15  +15      916.8         
11:53 20.05 В  16 км    8/8 390 м  +16.1  +14.4  90  +15  +15      917.1         
12:16 20.05 В  16 км    5/5 390 м  +16.1  +14.4  90  +15  +15      917.1         
12:53 20.05 ЮВ  16 км    2/2 270 м  +17.2  +15.0  87  +16  +16    1014.8  917.4         
13:21 20.05 В  16 км    8/8 300 м  +17.8  +15.0  84  +17  +17      917.4         
13:24 20.05 В  16 км    5/5 300 м  +17.8  +15.0  84  +17  +18      917.4         
13:53 20.05 В  16 км    2/2 360 м  +19.0  +15.0  78  +20  +20    1014.6  917.1         
14:53 20.05 В  16 км    ясно  +21.1  +15.0  68  +24  +28  комфорт  1014.9  917.7         
15:53 20.05 В  16 км    8/0 2250 м
[средняя] 
+22.2  +15.0  64  +26  +30  душно  1014.9  917.7         
16:53 20.05 СВ  16 км    ясно  +24.4  +15.6  58  +27  +39  жарко  1014.5  917.4         
17:53 20.05 С  5
{8} 
16 км    5/5 870 м  +24.4  +15.6  58  +27  +31  жарко  1014.2  917.1         
18:53 20.05 С  16 км    ясно  +25.6  +15.0  52  +28  +39  жарко  1013.5  916.5         
19:53 20.05 С  6
{9} 
16 км    2/2 1050 м  +26.1  +15.6  52  +29  +34  жарко  1013.2  916.2         
20:53 20.05 СВ  16 км    2/2 1140 м  +26.1  +14.4  48  +28  +36  жарко  1013.0  915.6         
21:53 20.05 В  7
{9} 
16 км    2/2 1200 м  +26.7  +15.0  49  +29  +31  жарко  1012.6  915.3         
22:53 20.05 В  16 км    ясно  +25.6  +15.0  52  +28  +30  жарко  1012.5  915.0    +26.7     

 

Местоположение метеостанции Midland International Airport: широта 31.9478 долгота -102.2086 высота над уровнем моря 875 м.

В архиве по умолчанию представлена погода в Мидленде за последние 1-2 суток. Обновление информации о фактической погоде в базе происходит ежечасно! Архивные данные за месяц целиком и за предыдущие месяцы Вы можете получить, выбрав интересующий диапазон дат из раскрывающегося списка и нажав кнопку "Ввод!".

Внимание! Архив погоды МЕТАР в базе сайта в настоящее время начинается c 1 января 2013 г. Нет смысла пытаться выбрать более раннюю дату.

Внимание! Время в таблицах - всемирное. Для получения местного времени необходимо прибавить поправку, которая в Мидленде равна -6 ч.

Ветер - указаны скорость ветра в м/с и направление, откуда дует ветер: С - северный, СВ - северо-восточный, В - восточный, ЮВ - юго-восточный, Ю - южный, ЮЗ - юго-западный, З - западный, СЗ - северо-западный.
Видимость - горизонтальная дальность видимости в метрах или километрах. При видимости от 1 до 10 км при отсутствии осадков обычно наблюдается дымка, при ухудшении видимости до 1 км и менее - туман. В сухую погоду видимость может ухудшаться дымом, пылью или мглою.
Атмосферные явления - указаны явления, наблюдавшиеся в указанный момент времени.
Облачность - указаны через наклонную черту верхняя и нижняя облачность в баллах и высота нижней границы облаков в метрах. Внимание: облачность, как и прочие метеорологические величины в США измеряются автоматическими метеостанциями. Указанные значения в баллах носят условный характер и показывают процент времени, в течение которого, в среднем, лазерный луч высотомера отражался от облаков обратно.
T - Температура воздуха - температура, измеренная на высоте 2 м над землей.
Td - Температура точки росы - температура, при понижении до которой содержащийся в воздухе водяной пар достигнет насыщения.
f - Относительная влажность воздуха - влажноcть воздуха, измеренная на высоте 2 м над землей.
Te - Эффективная температура - температура, которую ощущает одетый по сезону человек в тени. Характеристика душности погоды. При расчете учитывается влияние влажности воздуха и скорости ветра на теплоощущения человека.
Tes - Эффективная температура на солнце - температура, которую ощущает человек, с поправкой на солнечный нагрев. Характеристика знойности погоды. Зависит от высоты солнца над горизонтом, облачности и скорости ветра. Ночью, в пасмурную погоду, а также при ветре 12 м/с и более поправка равна нулю.
P - Атмосферное давление - приведенное к уровню моря атмосферное давление.
Po - Атмосферное давление - измеренное на уровне метеостанции атмосферное давление.
Tmin - Минимальная температура - минимум температуры воздуха на высоте 2 м над землей.
Tmax - Максимальная температура - максимум температуры воздуха на высоте 2 м над землей.
R - Количество осадков - Количество выпавших осадков за 3 или 6 часов, мм.
SD - Снежный покров - Высота снежного покрова, см.